SR5NLK-1 Weather Reports


Display with metric or nautical units.
time (UTC)temp
F
wind
direction
speed
MPH
gust
MPH
rain 1hr
in
rain 24hr
in
rain mn
in
humidity
%
barometer
mb
20260503222503 62 157 3.0 5.0 0.00 0.00 0.00 40 1054.0
20260503222003 62 180 2.0 5.0 0.00 0.00 0.00 40 1005.8
20260503221802 62 157 1.0 5.0 0.00 0.00 0.00 40 1049.1
20260503221503 62 180 3.0 5.0 0.00 0.00 0.00 39 1016.7
20260503221003 62 180 5.0 5.0 0.00 0.00 0.00 39 968.6
20260503220503 63 225 2.0 3.0 0.00 0.00 0.00 39 1022.1
20260503220003 63 202 3.0 6.0 0.00 0.00 0.00 39 1045.9
20260503215503 63 180 3.0 7.0 0.00 0.00 0.00 39 1084.7
20260503215010 63 202 4.0 5.0 0.00 0.00 0.00 1010.4
20260503215003 63 202 4.0 5.0 0.00 0.00 0.00 38 1010.4
20260503214502 63 180 5.0 6.0 0.00 0.00 0.00 38 1075.2
20260503214003 63 157 3.0 6.0 0.00 0.00 0.00 38 1045.9
20260503213503 63 202 6.0 6.0 0.00 0.00 0.00 38 1004.1
20260503213009 64 180 2.0 6.0 0.00 0.00 0.00 37 1308.4
20260503213003 64 180 2.0 6.0 0.00 0.00 0.00 37 1084.7
20260503212503 64 180 2.0 6.0 0.00 0.00 0.00 37 1084.6
20260503212003 64 180 3.0 4.0 0.00 0.00 0.00 37 1058.5
20260503211503 64 157 1.0 6.0 0.00 0.00 0.00 36 1039.7
20260503211202 64 180 2.0 6.0 0.00 0.00 0.00 36 1045.9
20260503211003 64 180 3.0 6.0 0.00 0.00 0.00 36 1108.3
20260503210503 65 157 2.0 3.0 0.00 0.00 0.00 36 1046.0
20260503210003 65 180 4.0 6.0 0.00 0.00 0.00 35 1010.4
20260503205503 65 157 3.0 4.0 0.00 0.00 0.00 35 1058.5
20260503205003 65 157 2.0 6.0 0.00 0.00 0.00 35 1042.8
20260503204503 66 180 3.0 5.0 0.00 0.00 0.00 35 1081.5
20260503204003 66 180 4.0 8.0 0.00 0.00 0.00 35 952.9
20260503203902 66 157 2.0 8.0 0.00 0.00 0.00 35 997.9
20260503203503 66 180 8.0 8.0 0.00 0.00 0.00 34 1078.4
20260503203003 66 112 3.0 6.0 0.00 0.00 0.00 34 1094.0
20260503202503 66 180 3.0 6.0 0.00 0.00 0.00 34 982.1
20260503202003 66 157 3.0 5.0 0.00 0.00 0.00 33 959.0
20260503201503 66 180 4.0 5.0 0.00 0.00 0.00 33 988.4
20260503201003 67 180 3.0 6.0 0.00 0.00 0.00 33 1039.7
20260503200602 67 157 4.0 6.0 0.00 0.00 0.00 33 1081.5
20260503200503 67 157 4.0 6.0 0.00 0.00 0.00 33 1049.1
20260503200003 67 157 3.0 6.0 0.00 0.00 0.00 33 1007.3
20260503195511 67 180 5.0 6.0 0.00 0.00 0.00 33 1042.8
20260503195503 67 180 5.0 6.0 0.00 0.00 0.00 33 1042.8
20260503195003 67 180 3.0 6.0 0.00 0.00 0.00 32 1087.8
20260503194503 67 157 2.0 6.0 0.00 0.00 0.00 32 1075.2
20260503194003 68 180 4.0 6.0 0.00 0.00 0.00 32 1001.0
20260503193503 68 157 6.0 6.0 0.00 0.00 0.00 32 971.7
20260503193302 68 157 3.0 4.0 0.00 0.00 0.00 32 1078.4
20260503193003 68 157 4.0 6.0 0.00 0.00 0.00 31 1078.4
20260503192503 68 157 4.0 6.0 0.00 0.00 0.00 31 1027.1
20260503192003 68 157 4.0 6.0 0.00 0.00 0.00 31 914.6
20260503191503 68 180 4.0 5.0 0.00 0.00 0.00 31 1033.4
20260503191003 69 135 5.0 6.0 0.00 0.00 0.00 31 1090.9
20260503190503 69 157 4.0 6.0 0.00 0.00 0.00 30 1075.2
20260503190002 69 157 2.0 5.0 0.00 0.00 0.00 30 1039.7
20260503185503 69 180 2.0 7.0 0.00 0.00 0.00 30 1064.7
20260503185003 69 157 4.0 5.0 0.00 0.00 0.00 30 1001.0
20260503184503 70 135 3.0 5.0 0.00 0.00 0.00 29 1052.2
20260503184003 70 157 4.0 5.0 0.00 0.00 0.00 29 1049.1
20260503183503 70 157 3.0 5.0 0.00 0.00 0.00 27 1036.5
20260503183003 71 157 2.0 3.0 0.00 0.00 0.00 27 1036.6
20260503182702 71 202 3.0 4.0 0.00 0.00 0.00 28 1042.8
20260503182510 71 180 80.0 4.0 0.00 0.00 0.00 27 1075.2
20260503182503 71 180 1.0 4.0 0.00 0.00 0.00 27 1075.2
20260503182004 71 157 2.0 4.0 0.00 0.00 0.00 26 1075.3
20260503181504 72 202 2.0 5.0 0.00 0.00 0.00 26 1052.2
20260503181004 73 202 4.0 4.0 0.00 0.00 0.00 25 1039.7
20260503180503 73 180 3.0 5.0 0.00 0.00 0.00 25 1084.7
20260503180003 75 157 3.0 5.0 0.00 0.00 0.00 25 1052.2
20260503175503 75 202 5.0 5.0 0.00 0.00 0.00 24 1072.1
20260503175402 75 157 2.0 4.0 0.00 0.00 0.00 24 1036.5
20260503175003 76 202 3.0 4.0 0.00 0.00 0.00 24 1049.1
20260503174503 76 202 2.0 5.0 0.00 0.00 0.00 24 962.3
20260503174003 77 202 3.0 7.0 0.00 0.00 0.00 23 997.8
20260503173503 78 202 3.0 10.0 0.00 0.00 0.00 23 1072.1
20260503173003 78 225 4.0 6.0 0.00 0.00 0.00 23 1094.1
20260503172504 78 202 6.0 9.0 0.00 0.00 0.00 22 1090.9
20260503172102 79 202 3.0 9.0 0.00 0.00 0.00 22 1089.5
20260503172003 79 202 6.0 10.0 0.00 0.00 0.00 22 1049.1
20260503171503 80 225 9.0 12.0 0.00 0.00 0.00 22 985.3
20260503171011 80 180 3.0 8.0 0.00 0.00 0.00 22 956.0
20260503171003 80 180 3.0 8.0 0.00 0.00 0.00 22 956.0
20260503170503 80 225 5.0 9.0 0.00 0.00 0.00 21 1084.7
20260503151003 84 202 12.0 21.0 0.00 0.00 0.00 20 997.9
20260503150902 84 202 11.0 14.0 0.00 0.00 0.00 20 1049.1
20260503150503 84 270 7.0 15.0 0.00 0.00 0.00 20 1033.4
20260503140303 85 202 8.0 16.0 0.00 0.00 0.00 19 1109.7
20260503131004 85 157 6.0 18.0 0.00 0.00 0.00 19 1097.2
20260503130504 85 135 4.0 18.0 0.00 0.00 0.00 19 1036.6
20260503110504 84 157 15.0 15.0 0.00 0.00 0.00 21 1081.5
20260503090504 82 157 3.0 12.0 0.00 0.00 0.00 25 1055.4
20260503081511 87 157 12.0 16.0 0.00 0.00 0.00 22 1023.0
20260503081504 87 157 12.0 16.0 0.00 0.00 0.00 22 1023.0
20260503081004 88 157 5.0 21.0 0.00 0.00 0.00 22 1084.7
20260503080504 89 202 8.0 16.0 0.00 0.00 0.00 22 1081.5
20260503072703 94 202 11.0 19.0 0.00 0.00 0.00 21 1090.9
20260503072504 94 225 13.0 19.0 0.00 0.00 0.00 21 1047.8
20260503072004 93 180 4.0 9.0 0.00 0.00 0.00 23 1018.7
20260503071504 93 180 9.0 11.0 0.00 0.00 0.00 23 1052.5
20260503071004 93 157 9.0 10.0 0.00 0.00 0.00 23 1042.1
20260503070504 93 202 8.0 10.0 0.00 0.00 0.00 23 1036.4
20260503055004 87 202 9.0 10.0 0.00 0.00 0.00 27 1005.4
20260503054803 87 180 5.0 10.0 0.00 0.00 0.00 27 1083.8
20260503054504 87 225 7.0 8.0 0.00 0.00 0.00 27 1049.1
20260503054004 86 225 6.0 9.0 0.00 0.00 0.00 27 1084.7
20260503053504 86 180 4.0 8.0 0.00 0.00 0.00 28 1080.7
20260503053004 86 180 5.0 8.0 0.00 0.00 0.00 28 1076.2
20260503052504 86 225 5.0 7.0 0.00 0.00 0.00 28 1089.9
20260503052252 86 202 5.0 5.0 0.00 0.00 0.00 28 1033.4
20260503052004 86 202 5.0 5.0 0.00 0.00 0.00 28 1033.4
20260503051504 85 180 3.0 5.0 0.00 0.00 0.00 29 1075.2
20260503051005 85 202 3.0 5.0 0.00 0.00 0.00 29 1086.5
20260503050504 84 180 3.0 3.0 0.00 0.00 0.00 30 1062.7
20260503050005 83 202 3.0 6.0 0.00 0.00 0.00 31 1087.7
20260503045504 82 180 1.0 4.0 0.00 0.00 0.00 33 999.0
20260503045004 80 157 1.0 4.0 0.00 0.00 0.00 34 1027.1
20260503044504 79 202 2.0 5.0 0.00 0.00 0.00 35 1084.7
20260503044204 78 202 4.0 5.0 0.00 0.00 0.00 36 1090.9
20260503044004 78 180 2.0 4.0 0.00 0.00 0.00 37 1033.4
20260503043505 77 247 2.0 4.0 0.00 0.00 0.00 38 1041.6
20260503043004 75 180 2.0 4.0 0.00 0.00 0.00 40 1084.8
20260503042504 73 202 2.0 3.0 0.00 0.00 0.00 42 1051.9
20260503042005 70 225 3.0 5.0 0.00 0.00 0.00 45 1087.8
20260503041505 68 202 4.0 5.0 0.00 0.00 0.00 48 1081.5
20260503041005 66 247 3.0 5.0 0.00 0.00 0.00 52 1075.2
20260503040904 66 202 3.0 5.0 0.00 0.00 0.00 53 1033.4
20260503040505 64 247 2.0 6.0 0.00 0.00 0.00 56 1086.8
20260503040005 60 202 6.0 6.0 0.00 0.00 0.00 62 1049.1
20260503035505 57 202 4.0 6.0 0.00 0.00 0.00 68 1039.7
20260503035005 54 247 3.0 3.0 0.00 0.00 0.00 70 1030.3
20260503034505 51 270 0.0 2.0 0.00 0.00 0.00 69 1043.1
20260503034005 49 270 0.0 1.0 0.00 0.00 0.00 67 1072.3
20260503033604 49 270 0.0 1.0 0.00 0.00 0.00 67 1043.4
20260503033505 49 292 0.0 1.0 0.00 0.00 0.00 67 1058.9
20260503033005 48 270 1.0 2.0 0.00 0.00 0.00 66 1001.9
20260503032505 48 292 2.0 2.0 0.00 0.00 0.00 65 1006.0
20260503032005 48 292 0.0 0.0 0.00 0.00 0.00 64 1081.5
20260503031505 48 337 0.0 0.0 0.00 0.00 0.00 64 1044.4
20260503031005 49 337 0.0 0.0 0.00 0.00 0.00 63 1029.0
20260503030505 49 202 0.0 1.0 0.00 0.00 0.00 63 1100.3
20260503030304 49 180 0.0 1.0 0.00 0.00 0.00 62 1068.9
20260503030005 50 180 0.0 1.0 0.00 0.00 0.00 62 1081.5
20260503025505 50 180 0.0 2.0 0.00 0.00 0.00 62 1027.1
20260503025005 50 202 1.0 3.0 0.00 0.00 0.00 62 1036.7
20260503024505 50 225 2.0 4.0 0.00 0.00 0.00 62 1065.8
20260503024005 50 202 2.0 4.0 0.00 0.00 0.00 62 1034.9
20260503023505 50 157 2.0 2.0 0.00 0.00 0.00 61 1094.1
20260503023004 50 202 2.0 2.0 0.00 0.00 0.00 61 1045.5
20260503022505 50 180 2.0 3.0 0.00 0.00 0.00 61 1048.1
20260503022005 50 202 2.0 3.0 0.00 0.00 0.00 61 1081.5
20260503021514 50 202 2.0 4.0 0.00 0.00 0.00 61 1605.0
20260503021505 50 202 2.0 4.0 0.00 0.00 0.00 61 1050.2
20260503021005 50 202 4.0 4.0 0.00 0.00 0.00 61 1039.3
20260503020954 51 225 2.0 2.0 0.00 0.00 0.00 60 1039.3
20260503020005 51 225 2.0 2.0 0.00 0.00 0.00 60 1044.7
20260503015704 51 180 0.0 2.0 0.00 0.00 0.00 60 1089.0
20260503015505 51 202 1.0 4.0 0.00 0.00 0.00 60 1087.8
20260503015005 51 202 4.0 4.0 0.00 0.00 0.00 60 956.4
20260503014505 51 180 1.0 4.0 0.00 0.00 0.00 61 1085.5
20260503014011 5 225 2.0 5.0 0.00 0.00 0.00 61
20260503014005 51 225 2.0 5.0 0.00 0.00 0.00 61 1007.7
20260503013505 51 202 3.0 5.0 0.00 0.00 0.00 61 1062.6
20260503013005 51 202 3.0 4.0 0.00 0.00 0.00 61 1043.9
20260503012505 51 225 4.0 5.0 0.00 0.00 0.00 61 1053.0
20260503012404 51 202 3.0 5.0 0.00 0.00 0.00 61 1078.9
20260503012005 51 202 3.0 6.0 0.00 0.00 0.00 61 1030.9
20260503011511 51 202 2.0 2.0 0.00 0.00 0.00 1042.4
20260503011505 51 202 2.0 2.0 0.00 0.00 0.00 61 1042.4
20260503011005 51 202 1.0 2.0 0.00 0.00 0.00 61 997.7
20260503010505 51 225 1.0 2.0 0.00 0.00 0.00 61 1045.4
20260503010005 51 225 2.0 3.0 0.00 0.00 0.00 61 1055.9
20260503005505 51 225 3.0 3.0 0.00 0.00 0.00 62 1078.6
20260503005104 51 247 1.0 2.0 0.00 0.00 0.00 62 995.1
20260503005005 51 225 2.0 2.0 0.00 0.00 0.00 62 1040.6
20260503004505 51 247 0.0 2.0 0.00 0.00 0.00 61 1066.6
20260503004005 51 247 2.0 2.0 0.00 0.00 0.00 61 1049.1
20260503003505 51 270 0.0 1.0 0.00 0.00 0.00 60 996.3
20260503003005 51 270 0.0 1.0 0.00 0.00 0.00 60 1006.1
20260503002505 51 270 0.0 1.0 0.00 0.00 0.00 59 1084.7
20260503002005 52 225 0.0 1.0 0.00 0.00 0.00 58 1036.6
20260503001804 52 247 0.0 1.0 0.00 0.00 0.00 57 1048.4
20260503001505 52 270 0.0 1.0 0.00 0.00 0.00 57 1044.0
20260503001005 52 247 0.0 0.0 0.00 0.00 0.00 56 1001.1
20260503000505 53 225 0.0 0.0 0.00 0.00 0.00 55 1081.5
20260503000005 53 225 0.0 1.0 0.00 0.00 0.00 55 1035.9
20260502235505 54 225 0.0 1.0 0.00 0.00 0.00 55 1005.5
20260502235005 54 202 0.0 3.0 0.00 0.00 0.00 55 997.9
20260502234504 54 202 3.0 3.0 0.00 0.00 0.00 55 1044.4
20260502234005 54 180 3.0 4.0 0.00 0.00 0.00 55 1049.1
20260502233505 53 180 3.0 5.0 0.00 0.00 0.00 56 1010.3
20260502233005 53 225 5.0 6.0 0.00 0.00 0.00 56 1072.1
20260502232505 53 202 4.0 5.0 0.00 0.00 0.00 55 1042.8
20260502232005 53 157 0.0 1.0 0.00 0.00 0.00 55 1082.0
20260502231505 53 225 1.0 1.0 0.00 0.00 0.00 54 961.3
20260502231204 53 180 0.0 1.0 0.00 0.00 0.00 54 963.9
20260502231005 53 180 0.0 1.0 0.00 0.00 0.00 54 1054.2
20260502230505 53 157 0.0 1.0 0.00 0.00 0.00 54 962.1
20260502230005 54 157 0.0 0.0 0.00 0.00 0.00 53 1063.5
20260502225505 54 157 0.0 0.0 0.00 0.00 0.00 53 1042.8
20260502225005 54 180 0.0 0.0 0.00 0.00 0.00 52 1019.5
20260502224505 54 157 0.0 1.0 0.00 0.00 0.00 52 1056.4
20260502224005 55 247 0.0 2.0 0.00 0.00 0.00 51 1076.5
20260502223904 55 202 0.0 2.0 0.00 0.00 0.00 51 1082.8
20260502223505 55 157 0.0 1.0 0.00 0.00 0.00 51 1089.5
20260502223005 55 180 0.0 1.0 0.00 0.00 0.00 51 1072.1